DateTime,F1_A11,F1_S11,BsB_S11,BsG_S11,BsR_S11,BbsB_S11,BbsG_S11,BbsR_S11,BaB_A11,BaG_A11,BaR_A11,T_S11,U_S11,P_S11,T1_A11
2016-12-19T00:00:00Z,0000380,21000600,,,,,,,,,,27.7,00.0,0623.0,34.8
2016-12-19T00:01:00Z,0000380,21000600,,,,,,,,,,27.7,00.0,0623.1,34.8
2016-12-19T00:02:00Z,0000380,21000600,,,,,,,,,,27.7,00.0,0623.1,34.8
2016-12-19T00:03:00Z,0000380,61000600,,,,,,,,,,27.7,00.0,0623.1,34.8
2016-12-19T00:04:00Z,0000380,41000600,0000.64,-000.82,-000.34,-000.88,0000.69,-000.26,0000.06,-000.14,0000.11,27.7,00.0,0623.9,34.8
2016-12-19T00:05:00Z,0000380,01000600,0000.75,0000.09,-000.16,0000.30,0000.38,-000.34,-000.04,0000.08,0000.08,27.7,00.0,0624.0,34.8
2016-12-19T00:06:00Z,0000380,01000600,0001.50,0000.17,-000.40,-000.57,0000.33,-000.30,0000.17,-000.14,-000.51,27.7,00.0,0624.0,34.8
2016-12-19T00:07:00Z,0000380,01000600,0000.24,0000.59,-000.01,0000.10,0000.22,0000.17,-000.09,0000.19,0000.51,27.7,00.0,0624.0,34.8
2016-12-19T00:08:00Z,0000380,01000600,0001.20,0000.58,-000.01,0000.58,0000.59,-000.13,-000.07,0000.03,0000.17,27.7,00.0,0623.9,34.8
2016-12-19T00:09:00Z,0000380,01000600,0000.13,0000.58,-000.52,0000.57,0000.48,0000.11,0000.23,-000.07,-000.46,27.7,00.0,0623.9,34.8
2016-12-19T00:10:00Z,0000380,01000600,0000.28,-000.01,0000.21,0000.35,0000.25,0000.47,-000.28,-000.16,-000.20,27.7,00.0,0624.0,34.8
2016-12-19T00:11:00Z,0000380,01000600,0000.61,0000.37,0000.20,0000.16,0000.06,0000.02,-000.05,0000.06,0000.16,27.7,00.0,0623.9,34.8
2016-12-19T00:12:00Z,0000380,01000600,-000.55,-000.32,-000.12,0000.04,0000.11,0000.09,0000.11,-000.06,-000.13,27.7,00.0,0623.9,34.8
2016-12-19T00:13:00Z,0000380,01000600,0000.39,0000.49,-000.00,-000.25,0000.04,0000.24,-000.03,0000.03,0000.35,27.7,00.0,0623.9,34.8
2016-12-19T00:14:00Z,0000380,01000600,0000.68,0000.45,0000.04,0000.07,0000.21,0000.25,0000.08,0000.05,-000.01,27.7,00.0,0624.0,34.8
2016-12-19T00:15:00Z,0000380,01000600,0000.10,0000.51,0000.20,0000.21,0000.27,0000.07,-000.11,-000.07,0000.01,27.8,00.0,0624.0,34.8
2016-12-19T00:16:00Z,0000380,01000600,0000.11,-000.07,0000.01,0000.43,0000.43,0000.11,-000.07,-000.02,-000.36,27.8,00.0,0624.0,34.8
2016-12-19T00:17:00Z,0000380,01000600,-000.97,-000.22,-000.24,0000.14,0000.43,-000.17,0000.12,0000.09,0000.25,27.7,00.0,0624.0,34.8
2016-12-19T00:18:00Z,0000380,01000600,0001.16,0000.23,0000.42,0000.22,0000.71,0000.47,-000.06,-000.03,-000.22,27.7,00.0,0624.0,34.8
2016-12-19T00:19:00Z,0000380,01000600,0000.17,0000.50,0000.31,0000.38,0000.71,0000.23,-000.12,0000.01,0000.45,27.7,00.0,0624.0,34.8
2016-12-19T00:20:00Z,0000380,01000600,-000.41,0000.31,-000.22,-000.20,0000.11,-000.04,-000.01,0000.02,-000.08,27.7,00.0,0624.0,34.8
2016-12-19T00:21:00Z,0000380,01000600,0001.32,0000.15,-000.26,0000.20,0000.20,-000.28,0000.16,-000.05,0000.21,27.7,00.0,0624.0,34.8
2016-12-19T00:22:00Z,0000380,01000600,0000.13,0000.12,-000.18,-000.08,0000.10,0000.00,0000.00,-000.10,0000.16,27.7,00.0,0624.0,34.8
2016-12-19T00:23:00Z,0000380,01000600,0000.45,-000.08,-000.32,0000.02,-000.06,-000.67,0000.02,0000.08,-000.73,27.7,00.0,0623.9,34.8
2016-12-19T00:24:00Z,0000380,01000600,0001.15,0000.27,-000.17,0000.34,0000.13,0000.12,-000.12,0000.13,0000.24,27.7,00.0,0623.9,34.8
2016-12-19T00:25:00Z,0000380,01000600,0000.10,-000.15,0000.22,-000.18,0000.35,0000.04,0000.04,-000.01,0000.21,27.7,00.0,0623.9,34.8
2016-12-19T00:26:00Z,0000380,01000600,0000.64,-000.01,-000.16,0000.06,-000.02,-000.09,-000.08,-000.14,-000.20,27.7,00.0,0623.9,34.8
2016-12-19T00:27:00Z,0000380,01000600,0000.58,0000.17,-000.08,-000.01,0000.49,-000.13,0000.15,0000.05,-000.07,27.7,00.0,0623.9,34.8
2016-12-19T00:28:00Z,0000380,01000600,0000.13,0000.19,-000.73,-000.34,0000.54,-000.09,-000.03,0000.11,0000.10,27.7,00.0,0623.9,34.8
2016-12-19T00:29:00Z,0000380,01000600,0000.10,0000.72,-000.05,0000.37,0000.61,0000.17,0000.17,-000.02,0000.36,27.7,00.0,0623.9,34.8
2016-12-19T00:30:00Z,0000380,01000600,0000.77,-000.31,-000.14,-000.35,-000.00,-000.10,-000.03,-000.05,-000.04,27.7,00.0,0623.9,34.8
2016-12-19T00:31:00Z,0000380,01000600,0001.17,0000.37,-000.37,0000.11,-000.32,-000.18,-000.16,-000.04,-000.42,27.7,00.0,0623.9,34.8
2016-12-19T00:32:00Z,0000380,01000600,0000.80,0000.53,0000.08,0000.46,0000.32,-000.01,0000.16,0000.03,0000.57,27.7,00.0,0623.8,34.8
2016-12-19T00:33:00Z,0000380,01000600,0000.02,0000.09,0000.10,-000.33,0000.60,0000.18,0000.02,0000.13,-000.39,27.7,00.0,0623.8,34.8
2016-12-19T00:34:00Z,0000380,01000600,0000.20,0000.27,0000.00,0000.45,0000.41,-000.41,-000.07,-000.07,-000.05,27.7,00.0,0623.7,34.8
2016-12-19T00:35:00Z,0000380,01000600,0001.01,-000.03,-000.27,0000.05,-000.04,-000.09,0000.04,-000.05,0000.29,27.7,00.0,0623.7,34.8
2016-12-19T00:36:00Z,0000380,01000600,-000.24,0001.49,-000.08,0000.45,0000.26,0000.06,-000.24,0000.04,-000.11,27.7,00.0,0623.7,34.8
2016-12-19T00:37:00Z,0000380,01000600,0000.44,0000.76,-000.06,0000.15,0000.66,-000.08,0000.27,0000.19,0000.19,27.7,00.0,0623.6,34.8
2016-12-19T00:38:00Z,0000380,01000600,0001.16,-000.02,-000.47,0000.18,0000.61,-000.07,0000.06,-000.13,-000.04,27.7,00.0,0623.7,34.8
2016-12-19T00:39:00Z,0000380,01000600,0000.10,0000.46,-000.26,-000.04,0000.32,-000.10,-000.11,-000.07,-000.24,27.7,00.0,0623.7,34.8
2016-12-19T00:40:00Z,0000380,01000600,0000.48,0001.00,-000.18,0000.58,0000.33,-000.00,-000.00,0000.18,0000.39,27.7,00.0,0623.7,34.8
2016-12-19T00:41:00Z,0000380,01000600,-000.10,0000.53,-000.18,-000.01,-000.00,0000.33,0000.17,0000.00,-000.26,27.7,00.0,0623.7,34.8
2016-12-19T00:42:00Z,0000380,01000600,0000.39,0000.14,-000.00,0000.29,0000.12,-000.03,0000.10,-000.16,-000.04,27.7,00.0,0623.7,34.8
2016-12-19T00:43:00Z,0000380,01000600,0000.32,0000.63,0000.07,0000.32,0000.07,-000.08,0000.03,0000.19,0000.38,27.7,00.0,0623.7,34.8
2016-12-19T00:44:00Z,0000380,01000600,0001.13,0000.19,-000.19,0000.63,0000.64,0000.13,-000.21,-000.01,-000.42,27.7,00.0,0623.7,34.8
2016-12-19T00:45:00Z,0000380,01000600,0000.59,0000.36,-000.18,0000.45,0000.18,-000.42,-000.13,-000.06,0000.04,27.7,00.0,0623.7,34.8
2016-12-19T00:46:00Z,0000380,01000600,0000.78,0000.06,0000.15,0000.02,0000.10,-000.04,0000.03,0000.06,0000.18,27.7,00.0,0623.6,34.8
2016-12-19T00:47:00Z,0000380,01000600,0000.56,0000.84,-000.03,0000.63,0000.29,0000.60,0000.14,0000.16,-000.08,27.7,00.0,0623.6,34.8
2016-12-19T00:48:00Z,0000380,01000600,0000.65,0000.07,0000.06,0000.24,0000.24,0000.25,-000.25,-000.16,-000.05,27.7,00.0,0623.6,34.8
2016-12-19T00:49:00Z,0000380,01000600,0000.75,-000.09,-000.03,-000.76,0000.80,0000.11,0000.18,-000.16,0000.23,27.6,00.0,0623.6,34.8
2016-12-19T00:50:00Z,0000380,01000600,-000.28,0000.09,-000.26,-000.18,0000.46,-000.28,-000.14,0000.03,-000.31,27.6,00.0,0623.6,34.8
2016-12-19T00:51:00Z,0000380,01000600,0000.73,-000.09,0000.13,0000.62,0000.47,-000.55,0000.17,0000.13,0000.30,27.7,00.0,0623.6,34.8
2016-12-19T00:52:00Z,0000380,01000600,0000.85,-000.34,-000.19,0000.34,0000.62,0000.01,-000.09,-000.07,-000.20,27.6,00.0,0623.6,34.8
2016-12-19T00:53:00Z,0000380,01000600,0000.59,0000.30,-000.21,0000.70,0000.57,-000.01,0000.04,0000.12,0000.37,27.7,00.0,0623.6,34.8
2016-12-19T00:54:00Z,0000380,01000600,0000.36,0000.15,-000.27,0000.07,0000.06,-000.53,-000.17,-000.05,-000.13,27.6,00.0,0623.7,34.8
2016-12-19T00:55:00Z,0000380,01000600,0000.71,-000.04,-000.04,-000.52,0000.15,-000.23,-000.07,-000.20,-000.11,27.6,00.0,0623.8,34.8
2016-12-19T00:56:00Z,0000380,01000600,0001.01,0000.30,0000.23,0001.02,0000.38,0000.71,-000.05,-000.01,0000.08,27.6,00.0,0623.9,34.8
2016-12-19T00:57:00Z,0000380,41000600,,,,,,,,,,27.7,00.0,0623.9,34.8
2016-12-19T00:58:00Z,0000380,61000600,,,,,,,,,,27.6,00.0,0622.9,34.8
2016-12-19T00:59:00Z,0000380,21000600,,,,,,,,,,27.6,00.0,0622.9,34.8
2016-12-19T01:00:00Z,0000380,21000600,,,,,,,,,,27.6,00.0,0622.9,34.8
2016-12-19T01:01:00Z,0000380,21000600,,,,,,,,,,27.6,00.0,0622.8,34.8
2016-12-19T01:02:00Z,0000380,21000600,,,,,,,,,,27.6,00.0,0622.8,34.8
2016-12-19T01:03:00Z,0000380,61000600,,,,,,,,,,27.6,00.0,0622.8,34.8
2016-12-19T01:04:00Z,0000380,41000600,0000.54,0000.25,-000.18,0000.52,0000.08,-000.16,-000.01,-000.02,0000.23,27.6,00.0,0623.5,34.8
2016-12-19T01:05:00Z,0000380,01000600,0000.50,-000.02,-000.06,0000.27,0000.62,0000.09,0000.21,0000.12,0000.14,27.7,00.0,0623.5,34.8
2016-12-19T01:06:00Z,0000380,01000600,-000.09,0000.05,0000.13,0000.14,0000.23,-000.52,0000.01,0000.13,0000.12,27.6,00.0,0623.5,34.8
2016-12-19T01:07:00Z,0000380,01000600,-000.15,-000.02,0000.18,0000.60,0000.26,0000.20,-000.12,0000.14,-000.46,27.6,00.0,0623.5,34.8
2016-12-19T01:08:00Z,0000380,01000600,0000.57,0000.29,0000.55,0000.34,0000.52,0000.03,0000.30,-000.04,0000.20,27.6,00.0,0623.6,34.8
2016-12-19T01:09:00Z,0000380,01000600,0000.66,-000.08,-000.19,0000.30,0000.46,-000.30,-000.29,-000.16,-000.17,27.6,00.0,0623.6,34.8
2016-12-19T01:10:00Z,0000380,01000600,0000.15,-000.14,0000.63,-000.13,0000.28,-000.15,0000.25,0000.17,0000.24,27.6,00.0,0623.6,34.8
2016-12-19T01:11:00Z,0000380,01000600,0000.57,0000.41,0000.19,0000.43,0000.41,-000.45,0000.04,-000.08,0000.09,27.6,00.0,0623.6,34.8
2016-12-19T01:12:00Z,0000380,01000600,0001.07,-000.52,0000.39,0000.18,0000.04,-000.29,0000.22,0000.16,-000.41,27.6,00.0,0623.5,34.8
2016-12-19T01:13:00Z,0000380,01000600,0000.90,-000.30,-000.07,0000.30,0000.38,0000.17,-000.03,-000.09,0000.32,27.6,00.0,0623.5,34.8
2016-12-19T01:14:00Z,0000380,01000600,-000.28,-000.26,-000.11,0000.11,-000.11,0000.27,-000.26,0000.06,-000.20,27.6,00.0,0623.5,34.8
2016-12-19T01:15:00Z,0000380,01000600,0000.62,-000.71,0000.58,0000.66,0000.27,-000.13,0000.17,-000.02,-000.01,27.6,00.0,0623.4,34.8
2016-12-19T01:16:00Z,0000380,01000600,0000.84,-000.32,0000.34,0000.47,0000.06,-000.18,0000.05,-000.01,-000.04,27.6,00.0,0623.4,34.8
2016-12-19T01:17:00Z,0000380,01000600,-000.21,-000.08,0000.27,0000.43,0000.32,0000.12,-000.16,-000.01,0000.40,27.6,00.0,0623.4,34.8
2016-12-19T01:18:00Z,0000380,01000600,0000.41,-000.07,0000.37,-000.33,0000.33,0000.22,-000.25,-000.10,-000.38,27.6,00.0,0623.4,34.8
2016-12-19T01:19:00Z,0000380,01000600,0001.49,-000.49,-000.02,0000.07,0000.59,-000.07,0000.13,0000.02,0000.11,27.6,00.0,0623.5,34.8
2016-12-19T01:20:00Z,0000380,01000600,0000.71,0000.09,-000.04,-000.12,-000.10,-000.08,0000.09,-000.02,-000.12,27.5,00.0,0623.5,34.8
2016-12-19T01:21:00Z,0000380,01000600,0000.05,0000.48,-000.02,-000.31,0000.16,0000.38,0000.02,-000.07,0000.04,27.5,00.0,0623.5,34.8
2016-12-19T01:22:00Z,0000380,01000600,0000.27,-000.07,0000.01,0000.11,-000.08,0000.01,0000.04,0000.10,0000.15,27.5,00.0,0623.5,34.8
2016-12-19T01:23:00Z,0000380,01000600,0001.11,-000.09,0000.39,0000.62,0000.14,-000.19,0000.04,0000.02,0000.17,27.5,00.0,0623.5,34.8
2016-12-19T01:24:00Z,0000380,01000600,0000.61,-000.03,0000.52,0000.28,-000.20,-000.15,-000.27,0000.15,-000.15,27.5,00.0,0623.5,34.8
2016-12-19T01:25:00Z,0000380,01000600,0000.46,-000.00,0000.20,0000.69,0000.25,0000.19,0000.26,-000.06,0000.20,27.5,00.0,0623.4,34.8
2016-12-19T01:26:00Z,0000380,01000600,0000.05,0000.62,-000.40,-000.13,0000.06,-000.24,-000.05,0000.03,-000.15,27.5,00.0,0623.4,34.8
2016-12-19T01:27:00Z,0000380,01000600,0000.38,0000.11,0000.55,0000.38,0000.59,-000.39,-000.02,0000.01,0000.26,27.5,00.0,0623.4,34.8
2016-12-19T01:28:00Z,0000380,01000600,0000.17,0000.46,0000.14,0000.65,0000.55,-000.36,0000.16,0000.21,-000.45,27.5,00.0,0623.4,34.8
2016-12-19T01:29:00Z,0000380,01000600,0001.24,0000.04,0000.69,0000.60,0000.29,-000.32,-000.00,-000.15,0000.06,27.5,00.0,0623.4,34.8
2016-12-19T01:30:00Z,0000380,01000600,0000.62,0000.27,0000.60,-000.04,-000.13,-000.08,0000.01,-000.07,0000.26,27.5,00.0,0623.4,34.8
2016-12-19T01:31:00Z,0000380,01000600,0000.04,-000.28,0000.06,0000.46,0000.77,0000.09,-000.13,0000.01,-000.26,27.5,00.0,0623.4,34.8
2016-12-19T01:32:00Z,0000380,01000600,0000.21,-000.13,0000.02,-000.49,-000.23,-000.39,-000.06,0000.20,-000.14,27.5,00.0,0623.4,34.8
2016-12-19T01:33:00Z,0000380,01000600,0000.62,-000.78,0000.30,-000.33,-000.23,0000.15,0000.18,-000.08,0000.19,27.5,00.0,0623.4,34.8
2016-12-19T01:34:00Z,0000380,01000600,-000.05,-000.62,-000.04,-000.34,-000.14,-000.05,-000.03,-000.10,0000.36,27.5,00.0,0623.5,34.8
2016-12-19T01:35:00Z,0000380,01000600,0000.41,0000.55,0000.03,-000.11,-000.12,-000.17,-000.17,0000.10,-000.05,27.5,00.0,0623.5,34.8
2016-12-19T01:36:00Z,0000380,01000600,0000.89,0000.11,0000.40,0000.26,0000.05,-000.19,0000.00,0000.03,0000.07,27.5,00.0,0623.4,34.8
2016-12-19T01:37:00Z,0000380,01000600,0000.25,-000.05,-000.24,-000.19,0000.12,-000.18,-000.04,0000.02,-000.10,27.5,00.0,0623.5,34.8
2016-12-19T01:38:00Z,0000380,01000600,0000.36,0000.07,0000.21,0000.67,0000.21,-000.26,0000.35,-000.09,-000.01,27.5,00.0,0623.5,34.8
2016-12-19T01:39:00Z,0000380,01000600,0000.23,0000.38,0001.03,0000.14,0000.28,0000.32,-000.22,-000.02,-000.48,27.4,00.0,0623.4,34.8
2016-12-19T01:40:00Z,0000380,01000600,0000.35,0000.56,0000.63,-000.58,0000.81,-000.16,-000.15,0000.13,0000.25,27.5,00.0,0623.4,34.8
2016-12-19T01:41:00Z,0000380,01000600,0000.45,-000.27,0000.85,0000.82,0000.29,-000.23,0000.10,0000.09,0000.23,27.4,00.0,0623.4,34.8
2016-12-19T01:42:00Z,0000380,01000600,0001.00,-000.37,0000.36,0000.61,-000.05,-000.01,0000.20,-000.10,0000.13,27.4,00.0,0623.4,34.8
2016-12-19T01:43:00Z,0000380,01000600,0000.77,-000.38,-000.10,0000.27,-000.05,-000.41,-000.26,-000.03,-000.07,27.4,00.0,0623.4,34.8
2016-12-19T01:44:00Z,0000380,01000600,0000.42,-000.24,0000.43,0000.06,0000.00,0000.12,0000.30,-000.06,-000.25,27.4,00.0,0623.4,34.8
2016-12-19T01:45:00Z,0000380,01000600,0000.63,-000.54,0000.38,0000.22,-000.01,0000.17,-000.15,0000.09,-000.01,27.4,00.0,0623.4,34.8
2016-12-19T01:46:00Z,0000380,01000600,0000.04,-000.41,0000.16,-000.23,-000.17,-000.14,-000.11,-000.11,0000.25,27.4,00.0,0623.4,34.8
2016-12-19T01:47:00Z,0000380,01000600,0001.69,0000.52,0000.12,0000.18,0000.11,0000.11,0000.16,-000.03,-000.07,27.4,00.0,0623.3,34.8
2016-12-19T01:48:00Z,0000380,01000600,0000.16,0000.27,-000.12,0000.26,0000.16,-000.52,-000.18,-000.10,0000.01,27.4,00.0,0623.3,34.8
2016-12-19T01:49:00Z,0000380,01000600,0000.40,0000.12,-000.10,0000.63,-000.32,-000.12,0000.16,0000.20,-000.16,27.4,00.0,0623.3,34.8
2016-12-19T01:50:00Z,0000380,01000600,0000.15,0000.32,0000.59,-000.33,0000.19,-000.47,-000.16,-000.08,-000.01,27.4,00.0,0623.3,34.8
2016-12-19T01:51:00Z,0000380,01000600,0000.74,-000.03,-000.37,0000.51,0000.36,-000.09,0000.21,0000.09,0000.35,27.4,00.0,0623.3,34.8
2016-12-19T01:52:00Z,0000380,01000600,-000.16,-000.20,0000.54,-000.34,0000.16,0000.21,-000.11,-000.20,-000.29,27.4,00.0,0623.3,34.8
2016-12-19T01:53:00Z,0000380,01000600,-000.71,0000.43,-000.15,0000.61,0000.13,-000.28,0000.07,0000.22,0000.12,27.4,00.0,0623.3,34.8
2016-12-19T01:54:00Z,0000380,01000600,-000.17,0000.06,0000.62,0000.45,0000.05,0000.07,0000.03,-000.02,-000.05,27.4,00.0,0623.3,34.8
2016-12-19T01:55:00Z,0000380,01000600,-000.83,0000.12,0000.21,-000.32,0000.35,0000.07,0000.24,0000.08,-000.13,27.4,00.0,0623.3,34.8
2016-12-19T01:56:00Z,0000380,01000600,0000.57,0000.37,0000.89,-000.73,0000.04,0000.47,-000.22,0000.01,0000.15,27.4,00.0,0623.3,34.8
2016-12-19T01:57:00Z,0000380,41000600,,,,,,,,,,27.4,00.0,0623.3,34.8
2016-12-19T01:58:00Z,0000380,61000600,,,,,,,,,,27.3,00.0,0622.3,34.8
2016-12-19T01:59:00Z,0000380,21000600,,,,,,,,,,27.3,00.0,0622.2,34.8
2016-12-19T02:00:00Z,0000380,21000600,,,,,,,,,,27.3,00.0,0622.2,34.8
2016-12-19T02:01:00Z,0000380,21000600,,,,,,,,,,27.3,00.0,0622.2,34.8
2016-12-19T02:02:00Z,0000380,21000600,,,,,,,,,,27.3,00.0,0622.2,34.8
2016-12-19T02:03:00Z,0000380,61000600,,,,,,,,,,27.3,00.0,0622.2,34.8
2016-12-19T02:04:00Z,0000380,41000600,-000.16,0000.40,0000.43,0000.59,0000.07,0000.08,-000.09,-000.02,-000.26,27.3,00.0,0623.0,34.8
2016-12-19T02:05:00Z,0000380,01000600,0001.06,0000.82,0000.20,0000.59,-000.25,-000.28,0000.24,0000.12,0000.20,27.3,00.0,0623.1,34.8
2016-12-19T02:06:00Z,0000380,01000600,0000.41,0000.63,-000.14,-000.22,0000.64,-000.08,-000.14,-000.12,0000.08,27.3,00.0,0623.1,34.8
2016-12-19T02:07:00Z,0000380,01000600,0000.49,0000.47,-000.07,-000.12,0000.05,-000.08,0000.11,0000.00,-000.26,27.3,00.0,0623.0,34.8
2016-12-19T02:08:00Z,0000380,01000600,0000.64,0000.02,-000.41,0000.21,0000.14,-000.20,0000.24,0000.09,0000.22,27.3,00.0,0623.0,34.8
2016-12-19T02:09:00Z,0000380,01000600,-000.24,0000.16,0000.23,-000.01,0000.53,-000.43,-000.25,0000.13,-000.14,27.3,00.0,0623.0,34.8
2016-12-19T02:10:00Z,0000380,01000600,0000.50,0000.62,-000.00,0000.18,0000.51,-000.06,-000.18,-000.12,0000.02,27.3,00.0,0623.0,34.8
2016-12-19T02:11:00Z,0000380,01000600,0000.84,0000.37,-000.41,0000.05,0000.15,0000.38,0000.16,0000.03,0000.08,27.3,00.0,0623.1,34.8
2016-12-19T02:12:00Z,0000380,01000600,-001.29,0000.93,-000.42,0000.45,0000.71,-000.02,-000.07,-000.08,-000.25,27.4,00.0,0623.0,34.8
2016-12-19T02:13:00Z,0000380,01000600,0000.98,0000.42,-000.44,0000.45,0000.24,0000.14,-000.02,-000.14,0000.42,27.3,00.0,0623.0,34.8
2016-12-19T02:14:00Z,0000380,01000600,0000.19,0000.24,0000.05,-000.04,0000.27,-000.25,-000.02,0000.25,-000.15,27.4,00.0,0623.0,34.8
2016-12-19T02:15:00Z,0000380,01000600,0000.78,0000.28,-000.02,0000.19,0000.09,-000.36,0000.06,-000.06,0000.08,27.4,00.0,0623.0,34.8
2016-12-19T02:16:00Z,0000380,01000600,-000.00,0000.34,-000.37,0000.52,0000.15,0000.18,-000.14,0000.07,0000.12,27.3,00.0,0622.9,34.8
2016-12-19T02:17:00Z,0000380,01000600,0000.31,0000.87,-000.23,0001.02,-000.34,-000.08,0000.18,-000.20,-000.39,27.3,00.0,0622.9,34.8
2016-12-19T02:18:00Z,0000380,01000600,0000.80,0000.86,-000.47,0000.60,0000.54,-000.00,0000.00,0000.20,0000.13,27.3,00.0,0622.8,34.8
2016-12-19T02:19:00Z,0000380,01000600,-000.81,0000.37,-000.36,-000.20,0000.12,-000.19,0000.11,-000.10,0000.26,27.3,00.0,0622.8,34.8
2016-12-19T02:20:00Z,0000380,01000600,-000.41,0000.86,-000.01,0000.13,0000.27,0000.29,-000.36,0000.18,0000.17,27.3,00.0,0622.8,34.8
2016-12-19T02:21:00Z,0000380,01000600,0000.58,0000.64,-000.26,0000.13,0000.57,-000.24,0000.07,-000.17,-000.66,27.3,00.0,0622.8,34.8
2016-12-19T02:22:00Z,0000380,01000600,0000.45,0000.50,-000.66,-000.20,0000.03,0000.14,0000.14,0000.18,0000.39,27.3,00.0,0622.8,34.8
2016-12-19T02:23:00Z,0000380,01000600,0000.43,0000.61,-000.17,0000.74,0000.59,-000.25,-000.09,-000.11,-000.09,27.3,00.0,0622.7,34.8
2016-12-19T02:24:00Z,0000380,01000600,-000.09,0001.22,-000.18,0000.60,0000.14,-000.33,0000.08,0000.13,0000.02,27.3,00.0,0622.7,34.8
2016-12-19T02:25:00Z,0000380,01000600,0000.44,0000.90,0000.18,0000.08,0000.80,0000.02,0000.20,0000.08,0000.40,27.3,00.0,0622.7,34.8
2016-12-19T02:26:00Z,0000380,01000600,-001.51,0000.65,-000.29,0000.18,0000.49,-000.11,0000.09,-000.10,-000.30,27.3,00.0,0622.6,34.8
2016-12-19T02:27:00Z,0000380,01000600,0000.55,0000.97,0000.37,0000.32,0000.09,0000.24,0000.14,0000.02,0000.00,27.3,00.0,0622.6,34.8
2016-12-19T02:28:00Z,0000380,01000600,0000.13,0000.82,-000.69,0000.63,-000.13,-000.12,0000.02,-000.05,0000.34,27.3,00.0,0622.6,34.8
2016-12-19T02:29:00Z,0000380,01000600,-000.00,0000.41,-000.28,0000.07,0000.26,-000.17,-000.21,0000.05,-000.18,27.3,00.0,0622.6,34.8
2016-12-19T02:30:00Z,0000380,01000600,-000.41,0000.59,-000.02,0000.86,0000.16,0000.40,0000.29,0000.01,-000.06,27.3,00.0,0622.6,34.8
2016-12-19T02:31:00Z,0000380,01000600,0000.68,0001.51,-000.68,0000.29,0000.19,-000.05,-000.19,0000.15,0000.21,27.3,00.0,0622.6,34.8
2016-12-19T02:32:00Z,0000380,01000600,-000.01,0000.70,0000.14,0000.21,0000.58,-000.13,0000.04,-000.06,-000.33,27.3,00.0,0622.6,34.8
2016-12-19T02:33:00Z,0000380,01000600,-000.18,0000.38,0000.03,-000.13,0000.27,-000.13,0000.07,-000.01,0000.28,27.3,00.0,0622.6,34.8
2016-12-19T02:34:00Z,0000380,01000600,0000.42,0000.18,0000.01,0000.47,0000.31,0000.32,0000.03,0000.06,-000.39,27.2,00.0,0622.6,34.8
2016-12-19T02:35:00Z,0000380,01000600,-000.34,-000.35,-000.19,0000.20,0000.13,-000.17,-000.07,-000.19,0000.09,27.3,00.0,0622.6,34.8
2016-12-19T02:36:00Z,0000380,01000600,-000.14,0000.89,0000.17,0000.18,-000.01,0000.07,-000.12,0000.21,0000.04,27.3,00.0,0622.5,34.8
2016-12-19T02:37:00Z,0000380,01000600,0000.68,0000.71,-000.38,0000.57,0000.42,-000.29,0000.04,0000.04,-000.04,27.2,00.0,0622.5,34.8
2016-12-19T02:38:00Z,0000380,01000600,0000.48,-000.03,0000.15,0000.13,0000.41,0000.03,0000.13,-000.04,0000.33,27.2,00.0,0622.5,34.8
2016-12-19T02:39:00Z,0000380,01000600,-000.01,0001.37,-000.21,0000.61,0000.24,-000.23,-000.10,-000.08,-000.37,27.2,00.0,0622.5,34.8
2016-12-19T02:40:00Z,0000380,01000600,-000.22,0000.12,0000.30,-000.39,-000.03,-000.27,0000.05,-000.02,0000.03,27.2,00.0,0622.5,34.8
2016-12-19T02:41:00Z,0000380,01000600,0000.64,0000.01,0000.07,0000.17,0000.06,0000.06,0000.27,0000.14,0000.21,27.2,00.0,0622.5,34.8
2016-12-19T02:42:00Z,0000380,01000600,0000.30,-000.01,-000.30,0000.40,0000.37,0000.27,-000.14,-000.03,0000.13,27.2,00.0,0622.5,34.8
2016-12-19T02:43:00Z,0000380,01000600,0000.85,0000.61,-000.59,0000.55,0000.16,0000.01,0000.15,0000.15,-000.09,27.2,00.0,0622.5,34.8
2016-12-19T02:44:00Z,0000380,01000600,-000.25,0000.50,0000.20,0000.37,0000.14,0000.22,-000.14,0000.15,0000.18,27.2,00.0,0622.6,34.8
2016-12-19T02:45:00Z,0000380,01000600,0000.80,0000.71,-000.40,-000.39,0000.53,0000.00,0000.13,-000.18,-000.26,27.2,00.0,0622.6,34.8
2016-12-19T02:46:00Z,0000380,01000600,-000.68,0001.05,-000.05,0000.20,0000.50,0000.02,-000.00,-000.10,0000.26,27.2,00.0,0622.5,34.8
2016-12-19T02:47:00Z,0000380,01000600,-000.54,0000.87,-000.27,-000.26,0000.27,0000.15,-000.02,0000.10,-000.14,27.2,00.0,0622.5,34.8
2016-12-19T02:48:00Z,0000380,01000600,0000.43,0000.33,-000.07,0000.18,0000.34,0000.02,0000.18,0000.07,0000.07,27.2,00.0,0622.4,34.8
2016-12-19T02:49:00Z,0000380,01000600,0001.06,0000.48,0000.55,0000.61,0000.47,0000.17,-000.12,-000.08,0000.11,27.2,00.0,0622.5,34.8
2016-12-19T02:50:00Z,0000380,01000600,0000.23,0000.58,-000.37,0000.69,0000.26,-000.12,0000.02,0000.11,-000.11,27.2,00.0,0622.4,34.8
2016-12-19T02:51:00Z,0000380,01000600,-000.05,0000.13,0000.24,0000.11,-000.09,0000.09,0000.07,0000.02,-000.26,27.1,00.0,0622.4,34.8
2016-12-19T02:52:00Z,0000380,01000600,-000.42,0000.33,0000.15,0000.66,0000.39,0000.28,0000.19,-000.11,0000.26,27.1,00.0,0622.4,34.8
2016-12-19T02:53:00Z,0000380,01000600,-000.10,0000.61,-000.01,0000.24,0000.12,-000.05,-000.26,0000.09,-000.11,27.1,00.0,0622.3,34.8
2016-12-19T02:54:00Z,0000380,01000600,-000.13,0000.12,-000.06,-000.28,-000.08,0000.08,0000.20,-000.03,0000.28,27.1,00.0,0622.3,34.8
2016-12-19T02:55:00Z,0000380,01000600,0001.08,0000.03,-000.33,-000.11,0000.16,-000.19,-000.02,-000.02,-000.26,27.1,00.0,0622.3,34.8
2016-12-19T02:56:00Z,0000380,01000600,0000.53,0001.67,-000.11,0000.02,0000.37,0000.06,0000.10,0000.08,-000.45,27.1,00.0,0622.4,34.8
2016-12-19T02:57:00Z,0000380,41000600,,,,,,,,,,27.1,00.0,0622.4,34.8
2016-12-19T02:58:00Z,0000380,61000600,,,,,,,,,,27.1,00.0,0621.4,34.8
2016-12-19T02:59:00Z,0000380,21000600,,,,,,,,,,27.1,00.0,0621.4,34.8
2016-12-19T03:00:00Z,0000380,21000600,,,,,,,,,,27.1,00.0,0621.4,34.8
2016-12-19T03:01:00Z,0000380,21000600,,,,,,,,,,27.1,00.0,0621.4,34.8
2016-12-19T03:02:00Z,0000380,21000600,,,,,,,,,,27.1,00.0,0621.4,34.8
2016-12-19T03:03:00Z,0000380,61000600,,,,,,,,,,27.1,00.0,0621.4,34.8
2016-12-19T03:04:00Z,0000380,41000600,0000.66,0000.26,0000.39,0000.31,-000.05,-000.27,0000.23,-000.10,0000.23,27.1,00.0,0622.2,34.8
2016-12-19T03:05:00Z,0000380,01000600,0000.29,0000.41,0000.11,-000.26,-000.36,0000.36,0000.06,-000.04,0000.08,27.1,00.0,0622.2,34.8
2016-12-19T03:06:00Z,0000380,01000600,0000.19,0000.40,0000.34,0000.17,0000.02,0000.58,0000.24,0000.06,-000.12,27.1,00.0,0622.3,34.8
2016-12-19T03:07:00Z,0000380,01000600,0001.19,0000.32,-000.35,0000.17,-000.13,-000.02,-000.38,0000.03,0000.05,27.1,00.0,0622.2,34.8
2016-12-19T03:08:00Z,0000380,01000600,-000.08,0000.24,0000.40,-000.14,-000.15,0000.00,0000.25,0000.08,-000.24,27.1,00.0,0622.2,34.8
2016-12-19T03:09:00Z,0000380,01000600,0000.72,-000.06,0000.08,-001.03,0000.53,0000.11,-000.12,-000.26,0000.01,27.1,00.0,0622.1,34.8
2016-12-19T03:10:00Z,0000380,01000600,0000.24,-000.50,-000.08,0000.18,0000.16,0000.22,-000.10,0000.22,0000.27,27.1,00.0,0622.1,34.8
2016-12-19T03:11:00Z,0000388,01000608,0000.71,0000.40,0000.00,0000.43,0000.27,0000.33,0000.05,-000.05,-000.06,27.1,00.0,0622.1,34.8